Location: Baller�as
(41.9020°N, 0.1554°W)
Time: 11:41:58
(UTC+00:00)

GP-B - Pass Details

Date: 10 August 2020
Orbit: 632 x 635 km, 89.8° (Epoch: 22 September)

Event Time Altitude Azimuth Distance (km) Brightness Sun altitude
Rises 20:28:41 0° 10° (N) 2,941 6.9 -14.1°
Reaches altitude 10° 20:31:04 10° 19° (NNE) 2,028 5.9 -14.5°
Maximum altitude 20:35:11 36° 87° (E) 1,002 3.7 -15.1°
Enters shadow 20:36:53 26° 131° (SE) 1,237 4.0 -15.3°
